Lay Lake Weather Center

Moon Phase Calendar



Lay Lake Water Level
Online Cameras

 


      

Current Conditions in Shelby
11/27/2022 11:50:01 PM

48°F
Feels Like 47
Clear
Humidity
91%
Pressure
29.94"
Wind
3.7 mph (W)
Dew Point
45°F
UV Index
0/10 (Low)
Visibility
6 mi

Hourly Forecast

Date & Time Sun, Nov 27
11:00 PM
Mon, Nov 28
12:00 AM
Mon, Nov 28
1:00 AM
Mon, Nov 28
2:00 AM
Mon, Nov 28
3:00 AM
Mon, Nov 28
4:00 AM
Mon, Nov 28
5:00 AM
Mon, Nov 28
6:00 AM
Mon, Nov 28
7:00 AM
Mon, Nov 28
8:00 AM
Mon, Nov 28
9:00 AM
Mon, Nov 28
10:00 AM
Mon, Nov 28
11:00 AM
Mon, Nov 28
12:00 PM
Mon, Nov 28
1:00 PM
Mon, Nov 28
2:00 PM
Mon, Nov 28
3:00 PM
Mon, Nov 28
4:00 PM
Mon, Nov 28
5:00 PM
Mon, Nov 28
6:00 PM
Mon, Nov 28
7:00 PM
Mon, Nov 28
8:00 PM
Mon, Nov 28
9:00 PM
Mon, Nov 28
10:00 PM
Mon, Nov 28
11:00 PM
Tue, Nov 29
12:00 AM
Tue, Nov 29
1:00 AM
Tue, Nov 29
2:00 AM
Tue, Nov 29
3:00 AM
Tue, Nov 29
4:00 AM
Tue, Nov 29
5:00 AM
Tue, Nov 29
6:00 AM
Tue, Nov 29
7:00 AM
Tue, Nov 29
8:00 AM
Tue, Nov 29
9:00 AM
Tue, Nov 29
10:00 AM
Tue, Nov 29
11:00 AM
Tue, Nov 29
12:00 PM
Tue, Nov 29
1:00 PM
Tue, Nov 29
2:00 PM
Tue, Nov 29
3:00 PM
Tue, Nov 29
4:00 PM
Tue, Nov 29
5:00 PM
Tue, Nov 29
6:00 PM
Tue, Nov 29
7:00 PM
Tue, Nov 29
8:00 PM
Tue, Nov 29
9:00 PM
Tue, Nov 29
10:00 PM
Condition
Clear

Clear

Clear

Clear

Clear

Clear

Clear

Clear

Clear

Clear

Clear

Clear

Clear

Clear

Clear

Clear

Clear

Clear

Clear

Clear

Clear

Clear

Clear

Clear

Clear

Clear

Clear

Clear

Clear

Clear

Clear

Clear

Clear

Clear

Clear

Clear

Clear

Clear

Clear

Clear

Clear

Clear

Rain

Rain

Rain

Rain

Rain

Rain
Temperature 48°F48°F48°F48°F48°F47°F47°F47°F47°F52°F56°F59°F62°F63°F64°F65°F64°F60°F55°F53°F52°F52°F51°F50°F50°F49°F49°F49°F48°F48°F48°F48°F48°F54°F59°F64°F67°F70°F71°F71°F71°F68°F64°F63°F63°F63°F63°F63°F
Feels Like 47°F47°F47°F47°F47°F47°F46°F46°F47°F50°F54°F58°F60°F62°F63°F63°F63°F59°F54°F52°F51°F50°F50°F49°F49°F48°F48°F47°F47°F46°F46°F46°F47°F53°F59°F63°F67°F69°F70°F71°F70°F68°F64°F63°F63°F63°F63°F63°F
Cloudiness 0%0%0%0%0%0%0%0%0%0%0%0%0%0%0%0%0%0%0%0%0%0%0%0%0%0%0%0%0%0%0%0%0%0%0%0%0%0%0%0%0%1%3%19%100%100%100%100%
Visibility 6 mi6 mi6 mi6 mi6 mi6 mi6 mi6 mi6 mi6 mi6 mi6 mi6 mi6 mi6 mi6 mi6 mi6 mi6 mi6 mi6 mi6 mi6 mi6 mi6 mi6 mi6 mi6 mi6 mi6 mi6 mi6 mi6 mi6 mi6 mi6 mi6 mi6 mi6 mi6 mi6 mi6 mi6 mi6 mi6 mi6 mi6 mi6 mi
Precipitation 0%0%0%0%0%0%0%0%0%0%0%0%0%0%0%0%0%0%0%0%0%0%0%0%0%0%0%0%0%0%0%0%0%0%0%0%0%0%0%0%0%5%37%58%96%94%96%100%
Humidity 90%91%92%93%94%95%96%96%94%81%70%62%57%53%51%51%52%64%73%77%80%83%86%88%90%92%94%95%95%96%96%96%96%85%76%68%62%59%58%58%62%66%78%83%83%86%87%88%
Dew Point 45°F45°F46°F46°F46°F46°F46°F45°F45°F46°F46°F46°F46°F46°F46°F46°F46°F48°F46°F46°F46°F46°F46°F47°F47°F47°F47°F47°F47°F46°F46°F46°F47°F49°F51°F53°F54°F54°F55°F56°F57°F56°F57°F58°F58°F59°F59°F59°F
Pressure 29.94"29.94"29.94"29.94"29.94"29.97"29.97"30"30.03"30.03"30.03"30.06"30.03"30.03"30"30"30"30"30"30.03"30.06"30.06"30.06"30.06"30.06"30.06"30.06"30.06"30.06"30.09"30.09"30.09"30.12"30.12"30.12"30.12"30.09"30.06"30.03"30"29.97"29.97"30"30"30"30"30"30"
Wind Speed 3.9 mph3.7 mph3.3 mph3.1 mph3.1 mph3 mph3.2 mph3.2 mph2.8 mph3.2 mph3.3 mph4.4 mph4.9 mph4.9 mph4.3 mph3.6 mph2.4 mph0.5 mph1 mph1.3 mph1.4 mph1.6 mph2.2 mph3.1 mph3.4 mph3.5 mph3.7 mph4.1 mph4.1 mph4.1 mph4.2 mph4.6 mph4.6 mph6.6 mph8.1 mph8.6 mph9.4 mph10.2 mph10.6 mph11 mph10.8 mph11 mph8.6 mph9 mph10.1 mph10.6 mph11.2 mph12 mph
Wind
Direction
268°
W
265°
W
258°
WSW
248°
WSW
263°
W
280°
W
299°
WNW
305°
NW
314°
NW
324°
NW
314°
NW
299°
WNW
295°
WNW
291°
WNW
290°
WNW
287°
WNW
276°
W
253°
WSW
159°
SSE
161°
SSE
142°
SE
124°
SE
111°
ESE
113°
ESE
119°
ESE
128°
SE
132°
SE
137°
SE
134°
SE
128°
SE
127°
SE
124°
SE
131°
SE
138°
SE
145°
SE
150°
SSE
155°
SSE
160°
SSE
157°
SSE
160°
SSE
155°
SSE
153°
SSE
161°
SSE
150°
SSE
153°
SSE
169°
S
164°
SSE
176°
S

Daily Forecast

Date High Low Precip. Humidity
Today
Nov 27

Rain
66 °F
48 °F
100%
58%
Monday
Nov 28

Clear
65 °F
47 °F
0%
57%
Tuesday
Nov 29

Rain
71 °F
48 °F
96%
62%
Wednesday
Nov 30

Rain
68 °F
42 °F
100%
62%
Thursday
Dec 1

Clouds
54 °F
35 °F
0%
32%
Friday
Dec 2

Clouds
62 °F
42 °F
0%
58%
Saturday
Dec 3

Clouds
67 °F
57 °F
13%
72%
Sunday
Dec 4

Clouds
75 °F
61 °F
11%
63%
Monday
Dec 5

Clouds
75 °F
60 °F
0%
60%
Tuesday
Dec 6

Rain
67 °F
50 °F
100%
93%
Wednesday
Dec 7

Rain
49 °F
37 °F
31%
61%
Thursday
Dec 8

Clouds
45 °F
25 °F
0%
24%
Friday
Dec 9

Clouds
54 °F
31 °F
0%
40%
Saturday
Dec 10

Clouds
59 °F
45 °F
5%
53%
Sunday
Dec 11

Rain
53 °F
48 °F
65%
86%
Monday
Dec 12

Clear
52 °F
30 °F
0%
30%

Temperature 8-14 Day Outlook



Precipitation 8-14 Day Outlook




Quick Links
Lay Lake News
Lay Lake Photos
Lay Lake Videos




About Us
Contact Us
Site Map
Search Site
Advertise With Us
   
www.LayLake.info
THE LAY LAKE WEBSITE

Copyright 2022, Lakes Online
Privacy    |    Legal